Rome, NY

5:12 AM EDT on August 23, 2017 (GMT -0400)
Griffiss

Weather History for KRME - May, 2014

Change the Weather History Date:

Thursday, May 15, 2014

  Actual Average Record
Temperature  
Mean Temperature 75 °F -  
Max Temperature 84 °F 72 °F 84 °F (2014)
Min Temperature 66 °F 46 °F 33 °F (2013)
Cooling Degree Days 10    
Growing Degree Days 25 (Base 50)    
Moisture  
Dew Point 59 °F    
Average Humidity 64    
Maximum Humidity 78    
Minimum Humidity 40    
Precipitation  
Precipitation 0.00 in - - ()
Sea Level Pressure  
Sea Level Pressure 30.04 in    
Wind  
Wind Speed 10 mph (SE)    
Max Wind Speed 22 mph    
Max Gust Speed 31 mph    
Visibility 10 miles    
Events      
Averages and records for this station are not official NWS values.
T = Trace of Precipitation, MM = Missing Value Source: NWS Daily Summary

Daily Weather History Graph

Daily Weather History Graph

Search for Another Location

Airport or City:

Trip Planner

Search our weather history database for the weather conditions in past years. The results will help you decide how hot, cold, wet, or windy it might be!

Date:

Astronomy

May. 15, 2014 Rise Set
Actual Time 5:37 AM EDT 8:18 PM EDT
Civil Twilight 5:05 AM EDT 8:51 PM EDT
Nautical Twilight 4:23 AM EDT 9:33 PM EDT
Astronomical Twilight 3:36 AM EDT 10:20 PM EDT
Moon 9:24 PM EDT (5/15) 6:23 AM EDT (5/15)
Length of Visible Light 15h 46m
Length of Day
14h 41m
Full, 99% of the Moon is Illuminated
May 15
Full
May 21
Last Quarter
May 28
New
Jun 5
First Quarter
Jun 13
Full

Hourly Weather History & Observations

Time (EDT) Temp. Heat Index Dew Point Humidity Pressure Visibility Wind Dir Wind Speed Gust Speed Precip Events Conditions
12:53 AM 68.0 °F - 57.9 °F 70% 30.12 in 10.0 mi SE 6.9 mph - N/A   Mostly Cloudy
1:53 AM 69.1 °F - 57.9 °F 68% 30.11 in 10.0 mi ESE 5.8 mph - N/A   Overcast
2:20 AM 69.1 °F - 57.9 °F 68% 30.11 in 10.0 mi ESE 8.1 mph - N/A   Overcast
2:53 AM 68.0 °F - 59.0 °F 73% 30.10 in 10.0 mi ESE 9.2 mph - N/A   Overcast
3:53 AM 68.0 °F - 59.0 °F 73% 30.10 in 10.0 mi ESE 9.2 mph - N/A   Overcast
4:53 AM 66.9 °F - 59.0 °F 76% 30.09 in 10.0 mi East 9.2 mph - N/A   Overcast
5:53 AM 66.0 °F - 59.0 °F 78% 30.10 in 10.0 mi ESE 9.2 mph - N/A   Overcast
6:53 AM 66.0 °F - 59.0 °F 78% 30.10 in 10.0 mi ESE 10.4 mph - N/A   Overcast
7:53 AM 66.0 °F - 59.0 °F 78% 30.09 in 10.0 mi ESE 9.2 mph - N/A   Overcast
8:53 AM 68.0 °F - 60.1 °F 76% 30.09 in 10.0 mi SE 11.5 mph - N/A   Overcast
9:21 AM 70.0 °F - 61.0 °F 73% 30.09 in 10.0 mi SE 13.8 mph - N/A   Partly Cloudy
9:53 AM 73.0 °F - 62.1 °F 68% 30.06 in 10.0 mi ESE 12.7 mph - N/A   Partly Cloudy
10:53 AM 75.9 °F - 62.1 °F 62% 30.03 in 10.0 mi SE 15.0 mph 24.2 mph N/A   Clear
11:53 AM 80.1 °F 81.2 °F 62.1 °F 54% 30.02 in 10.0 mi SE 12.7 mph 19.6 mph N/A   Clear
12:53 PM 82.0 °F 82.1 °F 59.0 °F 45% 30.01 in 10.0 mi SSE 18.4 mph 27.6 mph N/A   Clear
1:53 PM 84.0 °F 83.3 °F 57.0 °F 40% 29.98 in 10.0 mi SSE 21.9 mph 31.1 mph N/A   Partly Cloudy
3:53 PM 80.1 °F 80.6 °F 57.9 °F 47% 29.98 in 10.0 mi SSE 17.3 mph 24.2 mph N/A   Mostly Cloudy
4:53 PM 79.0 °F - 57.9 °F 48% 29.96 in 10.0 mi SSE 11.5 mph 24.2 mph N/A   Overcast
5:53 PM 79.0 °F - 57.9 °F 48% 29.96 in 10.0 mi South 16.1 mph 29.9 mph N/A   Mostly Cloudy
6:53 PM 78.1 °F - 59.0 °F 52% 29.95 in 10.0 mi SSE 11.5 mph 21.9 mph N/A   Mostly Cloudy
7:53 PM 75.0 °F - 59.0 °F 57% 29.96 in 10.0 mi SE 15.0 mph 23.0 mph N/A   Mostly Cloudy
8:53 PM 73.9 °F - 60.1 °F 62% 29.97 in 10.0 mi SE 13.8 mph - N/A   Mostly Cloudy
9:53 PM 72.0 °F - 60.1 °F 66% 29.97 in 10.0 mi ESE 12.7 mph 20.7 mph N/A   Overcast
11:53 PM 70.0 °F - 61.0 °F 73% 29.96 in 10.0 mi SE 9.2 mph - N/A   Scattered Clouds